This is the latest recevied weather packets stored in our database for station/object KA9CBS. If no packets are shown the sender has not sent any weather packets the latest 10 day(s).
| Time | Temp. | Humidity | Pressure | Rain* | Wind** | Luminosity | Snow |
|---|---|---|---|---|---|---|---|
| 1787894078 | 18.89° C | 92% | 1019.2 hPa | 0 mm | - | 0 W/m² | - |
| 1787893775 | 18.89° C | 91% | 1019.5 hPa | 0 mm | - | 0 W/m² | - |
| 1787893470 | 19.44° C | 89% | 1019.3 hPa | 0 mm | - | 0 W/m² | - |
| 1787893166 | 19.44° C | 88% | 1019.2 hPa | 0 mm | - | 0 W/m² | - |
| 1787892862 | 20° C | 87% | 1019.2 hPa | 0 mm | - | 0 W/m² | - |
| 1787892553 | 20° C | 85% | 1019.1 hPa | 0 mm | - | 0 W/m² | - |
| 1787892248 | 20.56° C | 85% | 1019 hPa | 0 mm | - | 0 W/m² | - |
| 1787891943 | 20.56° C | 84% | 1019.2 hPa | 0 mm | - | 0 W/m² | - |
| 1787891639 | 20.56° C | 83% | 1019.2 hPa | 0 mm | - | 0 W/m² | - |
| 1787891334 | 20.56° C | 83% | 1019.1 hPa | 0 mm | - | 0 W/m² | - |
| 1787891023 | 20.56° C | 82% | 1019.1 hPa | 0 mm | - | 0 W/m² | - |
| 1787890722 | 20.56° C | 82% | 1018.9 hPa | 0 mm | - | 0 W/m² | - |
| 1787890411 | 21.11° C | 81% | 1018.8 hPa | 0 mm | - | 0 W/m² | - |
| 1787890106 | 21.11° C | 81% | 1018.7 hPa | 0 mm | - | 0 W/m² | - |
| 1787889795 | 21.67° C | 80% | 1018.8 hPa | 0 mm | - | 0 W/m² | - |
| 1787889490 | 21.11° C | 81% | 1018.9 hPa | 0 mm | - | 0 W/m² | - |
| 1787889184 | 21.67° C | 80% | 1018.7 hPa | 0 mm | - | 0 W/m² | - |
| 1787888879 | 21.67° C | 79% | 1018.6 hPa | 0 mm | - | 0 W/m² | - |
| 1787888575 | 21.67° C | 79% | 1018.8 hPa | 0 mm | - | 0 W/m² | - |
| 1787888275 | 21.67° C | 79% | 1018.7 hPa | 0 mm | - | 0 W/m² | - |
| 1787887970 | 21.67° C | 79% | 1018.6 hPa | 0 mm | - | 0 W/m² | - |
| 1787887666 | 21.67° C | 78% | 1018.5 hPa | 0 mm | - | 0 W/m² | - |
| 1787887362 | 21.67° C | 78% | 1018.4 hPa | 0 mm | - | 0 W/m² | - |
| 1787887060 | 21.67° C | 78% | 1018.3 hPa | 0 mm | - | 0 W/m² | - |
| 1787886757 | 22.22° C | 78% | 1018.5 hPa | 0 mm | - | 0 W/m² | - |
* Rain latest hour (hover to see other rain measurements)
** Current wind speed in m/s (hover to see current wind gust speed)